Nasudden, Sweden

6:03 PM CEST on September 23, 2014 (GMT +0200)
Visby | Change Station
CLOSE
Current Station
Airport
Location: Visby Flygplats,
Elevation: 154 ft
Nearby Weather Stations

Elev 154 ft 57.66 °N, 18.35 °E | Updated 13 minutes ago

Scattered Clouds
Scattered Clouds
45 °F
Feels Like 40 °F
N
8
Wind Variable Wind from NW

Today
High -- | Low -- °F
--% Chance of Precip.
Yesterday
High -- | Low -- °F
Precip. -- in
6:33 AM 6:44 PM
Waning Crescent, 0% visible
Pressure 29.95 in
Visibility 6.2 miles
Clouds Scattered Clouds 3300 ft
Windchill 40 °F
Dew Point 36 °F
Humidity 71%
Rainfall 0.00 in
Snow Depth Not available.
UV 0 out of 12
Pollen Not available.
Air Quality Not available.
Flu Activity Not available.
METAR ESSV 231550Z 32007KT 9999 VCSH SCT033 07/02 Q1014 RESHGR

More Conditions Fewer Conditions

Pressure 29.95 in
Visibility 6.2 miles
Clouds Scattered Clouds 3300 ft
Windchill 40 °F
Dew Point 36 °F
Humidity 71%
Rainfall 0.00 in
Snow Depth Not available.
UV 0 out of 12
Pollen Not available.
Air Quality Not available.
Flu Activity Not available.
METAR ESSV 231550Z 32007KT 9999 VCSH SCT033 07/02 Q1014 RESHGR

More Conditions Fewer Conditions

10-Day Weather Forecast

Almanac

Astronomy

Sep. 23, 2014 Rise Set
Actual Time 6:33 AM CEST 6:44 PM CEST
Civil Twilight 5:55 AM CEST 7:22 PM CEST
Nautical Twilight 5:09 AM CEST 8:07 PM CEST
Astronomical Twilight 4:21 AM CEST 8:56 PM CEST
Moon 5:36 AM CEST 6:13 PM CEST
Length of Visible Light 13h 26m
Length of Day
12h 10m
Tomorrow will be 4m 48s shorter.
Waning Crescent, 0% of the Moon is Illuminated
Today
Waning Crescent
Sep 24
New
Oct 1
First Quarter
Oct 8
Full
Oct 15
Last Quarter

Today's Extremes

Country Highs Country Lows

Community

WunderPhotos

Upload Photos

1,755,737 photos uploaded!

WunderBlogs® & News

Nearby

Snow Depth

Not available.

Earthquake Activity

City Distance Mag. Time & Date
No recent earthquake activity has been reported nearby.
Minimum magnitude displayed is 2.5.

Coastal Water Temperatures

Place Temperature
No Stations Reporting

Nearby Weather Stations